This demonstration page uses our WeatherBlox Daily Observations layout. Learn more.

Left ArrowRight Arrow

38.83388, -104.82136

Hourly Observations for January 23, 2015

Temp ( °F °C ) Dew Point ( °F °C ) Humidity (%) Winds ( mph kmh ) Pressure ( in mb ) Visibility ( mi km ) Precip ( " mm )
12:56 am 00:56 Clear 27 -3 8 -13.6 44 44 NW 8 13 29.96 1015 10 16 N/A
1:56 am 01:56 Clear 26 -3.2 6 -14.3 42 42 NNW 6 9 29.96 1015 10 16 N/A
2:56 am 02:56 Clear 29 -1.7 1 -17.5 29 29 SSW 5 7 29.94 1014 10 16 N/A
3:56 am 03:56 Clear 30 -0.9 -3 -19.3 24 24 SSW 2 4 29.95 1014 10 16 N/A
4:56 am 04:56 Clear 31 -0.5 0 -17.6 26 26 Calm 29.93 1014 10 16 0.00 0.00
5:56 am 05:56 Clear 34 1 11 -11.9 38 38 NNW 13 20 29.91 1013 10 16 N/A
6:28 am 06:28 Clear with Light Showers 34 1 9 -13 35 35 NW 15 24 29.83 1010 10 16 N/A
6:40 am 06:40 Clear 34 1 10 -12 38 38 NNW 16 26 29.83 1010 10 16 N/A
6:44 am 06:44 Clear with Light Showers 34 1 10 -12 38 38 NW 16 26 29.83 1010 10 16 N/A
6:56 am 06:56 Windy with Rain Showers Likely 34 1.2 11 -11.5 39 39 NW 23 37 29.91 1013 10 16 N/A
7:13 am 07:13 Sunny 34 1 12 -11 41 41 NW 17 28 29.83 1010 10 16 N/A
7:56 am 07:56 Sunny 35 1.5 13 -10.3 42 42 NNW 14 22 29.91 1013 10 16 N/A
8:56 am 08:56 Sunny 34 1.2 14 -9.9 44 44 NNW 14 22 29.96 1015 10 16 N/A
9:56 am 09:56 Sunny 37 2.8 16 -8.7 43 43 N 7 11 29.94 1014 10 16 N/A
10:56 am 10:56 Sunny 38 3.1 14 -9.9 38 38 NNE 13 20 29.94 1014 10 16 N/A
11:56 am 11:56 Sunny 38 3.6 14 -9.8 37 37 ENE 8 13 29.93 1014 10 16 N/A
12:56 pm 12:56 Mostly Sunny 38 3.5 15 -9.7 38 38 NNE 14 22 29.90 1013 10 16 N/A
1:56 pm 13:56 Sunny 39 3.9 15 -9.3 38 38 N 10 17 29.90 1012 10 16 N/A
2:56 pm 14:56 Sunny 38 3.2 17 -8.1 44 44 NW 7 11 29.90 1013 10 16 N/A
3:56 pm 15:56 Sunny 36 2.4 18 -7.9 47 47 NW 8 13 29.91 1013 10 16 N/A
4:56 pm 16:56 Sunny 35 1.5 17 -8.4 48 48 NW 9 15 29.93 1014 10 16 N/A
5:56 pm 17:56 Clear 34 1.3 16 -9 47 47 NW 16 26 29.96 1015 10 16 N/A
6:56 pm 18:56 Mostly Cloudy 34 1 17 -8.5 50 50 NNW 10 17 29.99 1016 10 16 N/A
7:56 pm 19:56 Mostly Cloudy 33 0.3 17 -8.5 52 52 NNW 12 19 30.01 1016 10 16 N/A
8:56 pm 20:56 Mostly Cloudy 33 0.5 17 -8.5 51 51 NW 3 6 30.01 1016 10 16 N/A
9:56 pm 21:56 Mostly Cloudy 32 0 17 -8.2 54 54 WNW 9 15 30.01 1016 10 16 N/A
10:56 pm 22:56 Mostly Clear 35 1.6 15 -9.7 43 43 S 5 7 29.96 1015 10 16 N/A
11:56 pm 23:56 Clear 31 -0.6 16 -8.8 54 54 WSW 2 4 29.97 1015 10 16 N/A

Powered by AerisWeather